Regional Weather Roundup
Issued by NWS

Home | Current Version | Previous Version | Graphics & Text | Print | Product List | Glossary On
Versions: 1 2 3 4 5 6 7 8 9 10 11 12 13 14 15 16 17 18 19 20 21 22 23 24 25 26 27 28 29 30 31 32 33 34 35 36 37 38 39 40 41 42 43 44 45 46 47 48 49 50
000
ASUS43 KMKX 041159
RWRWI

WISCONSIN REGIONAL WEATHER ROUNDUP
NATIONAL WEATHER SERVICE MILWAUKEE/SULLIVAN WI
600 AM CST WED MAR 04 2015

NOTE: "FAIR" INDICATES FEW OR NO CLOUDS BELOW 12,000 FEET WITH NO
SIGNIFICANT WEATHER AND/OR OBSTRUCTIONS TO VISIBILITY.

WIZ001-002-006>008-014>016-023>028-041300-
NORTHWEST WISCONSIN

CITY           SKY/WX    TMP DP  RH WIND       PRES   REMARKS
SUPERIOR ARPT  CLEAR    -10 -15  79 S7        30.06R WCI -25
ASHLAND        CLEAR     -4 -12  68 SW10      30.02R WCI -21
6HR MIN TEMP:  -4; 6HR MAX TEMP:   7;

HAYWARD        CLEAR     -4 -13  65 W5        30.01R WCI -15
6HR MIN TEMP:  -4; 6HR MAX TEMP:   7;

SIREN          CLEAR     -5 -10  77 W7        30.07R WCI -19
CUMBERLAND     CLEAR     -8 -13  77 W7        30.02R WCI -22
RICE LAKE      CLEAR     -4 -10  77 W6        30.06R WCI -16
6HR MIN TEMP:  -4; 6HR MAX TEMP:   7;

CHETEK         CLEAR     -2  -8  75 W6        30.05R WCI -14
LADYSMITH      CLEAR     -3  -8  77 W10       30.02R WCI -20
6HR MIN TEMP:  -4; 6HR MAX TEMP:  11;

EAU CLAIRE     NOT AVBL
MENOMONIE      CLEAR      1  -7  69 W8        30.08R WCI -13
NEW RICHMOND   CLEAR     -3  -9  74 W10       30.09R WCI -20
OSCEOLA        CLEAR     -3  -9  75 W8        30.13R WCI -18
$$

WIZ003>005-009-010-017-018-041300-
NORTH CENTRAL WISCONSIN

CITY           SKY/WX    TMP DP  RH WIND       PRES   REMARKS
MANITOWISH WTR CLEAR     -4 -11  73 W7        29.89R WCI -18
ARBOR VITAE    CLEAR     -1  -8  71 W7        29.89R WCI -15
WOODRUFF       CLEAR     -1  -8  71 W7        29.89R WCI -15
RHINELANDER    FAIR      -3 -12  65 W7        29.90R WCI -16
6HR MIN TEMP:  -3; 6HR MAX TEMP:  11;

EAGLE RIVER    CLEAR     -2 -10  69 W9G16     29.87R WCI -18
LAND O LAKES   CLEAR     -1  -7  74 W9        29.87R WCI -16
PHILLIPS       CLEAR     -4 -12  71 W5        29.94R WCI -15
6HR MIN TEMP:  -4; 6HR MAX TEMP:   8;

TOMAHAWK       CLEAR     -2 -10  68 CALM      29.93R
MEDFORD        CLEAR     -1  -8  71 NW9       29.95R WCI -17
MERRILL        CLEAR      1  -9  63 W8        29.94R WCI -14
$$

WIZ029-030-035-036-043>047-041300-
CENTRAL WISCONSIN

CITY           SKY/WX    TMP DP  RH WIND       PRES   REMARKS
WAUSAU         CLEAR      1  -7  68 NW9       29.95R WCI -14
6HR MIN TEMP:   1; 6HR MAX TEMP:  14;

MOSINEE        CLEAR      1  -6  71 W12       29.97R WCI -15
MARSHFIELD     CLEAR      2  -7  66 NW14      29.99R WCI -16
6HR MIN TEMP:   2; 6HR MAX TEMP:  13;

STEVENS POINT  CLEAR      2  -8  63 W8G16     29.98R WCI -11
WAUPACA        FAIR       9  -3  58 W14G20    29.99R WCI  -7
WAUTOMA        NOT AVBL
WISC RAPIDS    CLEAR      4  -6  63 NW10G20   30.03R WCI -11
6HR MIN TEMP:   4; 6HR MAX TEMP:  17;

CAMP DOUGLAS   NOT AVBL
$$

WIZ011>013-019>022-031-037>040-048>050-041300-
NORTHEAST WISCONSIN

CITY           SKY/WX    TMP DP  RH WIND       PRES   REMARKS
ANTIGO         CLEAR      1  -5  76 W12G18    29.89R WCI -16
SHAWANO        CLEAR     11   0  60 NW5       29.96R WCI   3
OCONTO         CLEAR     10  -2  58 NW9       29.95R WCI  -3
STURGEON BAY   PTCLDY     9  -2  61 W12       29.95R WCI  -6
6HR MIN TEMP:   9; 6HR MAX TEMP:  21;

GREEN BAY      PTCLDY    11   1  64 W13       29.96R WCI  -4
6HR MIN TEMP:  11; 6HR MAX TEMP:  23;

MANITOWOC      NOT AVBL
APPLETON       MOCLDY     9   0  66 W13G26    29.97R WCI  -7
CLINTONVILLE   CLEAR      9   0  66 W10       29.96R WCI  -6
OSHKOSH        PTCLDY     9  -1  64 W14       29.99R WCI  -7
6HR MIN TEMP:   9; 6HR MAX TEMP:  23;

$$

WIZ032>034-041-042-053>061-041300-
SOUTHWEST WISCONSIN

CITY           SKY/WX    TMP DP  RH WIND       PRES   REMARKS
LA CROSSE      CLEAR      6  -3  66 W8        30.12R WCI  -7
6HR MIN TEMP:   6; 6HR MAX TEMP:  14;

SPARTA         CLEAR      7  -3  64 W6        30.09R WCI  -4
VIROQUA        CLEAR      5  -2  73 NW9       30.04R WCI  -9
BOSCOBEL       CLEAR      9  -2  61 W8        30.12R WCI  -3
6HR MIN TEMP:   9; 6HR MAX TEMP:  17;

PRAIRIE DU CHI PTCLDY     8  -3  59 W13G21    30.12R WCI  -8
PLATTEVILLE    PTCLDY     8   2  73 W8        30.07R WCI  -4
$$

WIZ056-057-062-063-064-067-068-041300-
SOUTH CENTRAL WISCONSIN

CITY           SKY/WX    TMP DP  RH WIND       PRES   REMARKS
REEDSBURG      PTCLDY     9  -1  66 NW10G18   30.04R WCI  -6
BARABOO/DELLS  PTCLDY     8  -3  59 NW8       30.03R WCI  -4
LONE ROCK      NOT AVBL
MINERAL POINT  CLEAR     10   1  67 W8        30.04R WCI  -1
MADISON        MOCLDY    11   3  70 W6        30.04R WCI   1
6HR MIN TEMP:  11; 6HR MAX TEMP:  25;

MIDDLETON      PTCLDY    13   3  66 NW10      30.03R WCI  -1
WATERTOWN      PTCLDY    13   4  67 W12G17    30.01R WCI  -1
MONROE         MOCLDY    12   5  73 NW14G25   30.02R WCI  -3
JANESVILLE     CLOUDY    16   9  73 NW13      30.03R WCI   2
$$

WIZ051-052-058>065-066-070>072-041300-
SOUTHEAST WISCONSIN

CITY           SKY/WX    TMP DP  RH WIND       PRES   REMARKS
MILWAUKEE      MOCLDY    16   3  56 NW16      30.01R WCI   1
6HR MIN TEMP:  16; 6HR MAX TEMP:  31;

WAUKESHA       PTCLDY    12   3  67 NW12G23   30.00R WCI  -2
MILWAUKEE/TIMM PTCLDY    14   3  62 NW16G22   30.00R WCI  -2
RACINE         PTCLDY    17   6  62 NW9       30.02R WCI   6
6HR MIN TEMP:  17; 6HR MAX TEMP:  30;

BURLINGTON     PTCLDY    13   7  79 W9        30.01R WCI   0
KENOSHA        CLEAR     15   9  76 W9        30.01R WCI   3
6HR MIN TEMP:  15; 6HR MAX TEMP:  30;

FOND DU LAC    PTCLDY    11   1  64 W13       29.99R WCI  -4
6HR MIN TEMP:  11; 6HR MAX TEMP:  25;

SHEBOYGAN      CLEAR     12   2  64 NW14      29.97R WCI  -3
6HR MIN TEMP:  12; 6HR MAX TEMP:  28;

WEST BEND      CLEAR     12   3  67 W12G17    29.97R WCI  -2
JUNEAU         PTCLDY    10   1  68 W7        30.01R WCI  -1
$$

LSZ147-162-041300-
LAKE SUPERIOR

STATION/POSITION TIME  TEMP    WIND        PRES    WAVE
                       AIR SEA DIR/SP/G            HT/PER
                 (UTC) (F)     (DEG/KT/KT) (MB)    (FT/S)
DEVILS ISLAND    1000    4     280/ 24/ 27 1015.7R
PORT WING        1140    2     300/ 18/ 24 1017.3R
SAXON HARBOR     1040    1     230/  5/ 10 1015.6R
$$

LMZ867-665-643>646-041300-
LAKE MICHIGAN

STATION/POSITION TIME  TEMP    WIND        PRES    WAVE
                       AIR SEA DIR/SP/G            HT/PER
                 (UTC) (F)     (DEG/KT/KT) (MB)    (FT/S)
NORTHPORT PIER   1104   12     280/  8/ 16 1012.2R
SISTER BAY       1013   11     310/ 13/ 14   N/A
KEWAUNEE LAKESHO 1100   15     300/ 14/ 19 1012.2R
SHEBOYGAN LAKESH 1100   16     300/ 16/ 18 1015.6R
PORT WASHINGTON  1000   19     300/  6/ 14 1013.9R
MILWAUKEE LAKESH 1100   19     300/ 11/ 14   N/A
KENOSHA   LAKESH 1000   24     300/  8/ 11 1013.2R
$$

TC  - TEMPERATURE IN CELSIUS
VSB - VISIBILITY IN STATUTE MILES
WCI - WIND CHILL INDEX
HX  - HEAT INDEX




USA.gov is the U.S. government's official web portal to all federal, state and local government web resources and services.